{"data":{"norad_id":25481,"intl_designator":"1998-053G","name":"ORBCOMM FM27","alt_names":[],"object_type":"PAYLOAD","status":"ACTIVE","operator":null,"country":"ORB","launch_date":"1998-09-23","launch_site_code":"ERAS","launch_vehicle":null,"mission":null,"orbit_class":"UNKNOWN","rcs_meters":0.659,"size_class":null,"mass_kg":null,"dimensions":null,"purposes":["comms"],"wikipedia_slug":null,"has_3d_model":false,"image_url":null,"decayed_at":null,"tle_current":{"epoch":"2026-05-25T03:21:54.268416Z","epoch_age_seconds":59048,"freshness":"FRESH","line1":"1 25481U 98053G   26145.14021144  .00000766  00000+0  29138-3 0  9994","line2":"2 25481  45.0051  84.8130 0001366 322.2048  37.8705 14.39087448446910","mean_motion":14.39087448,"eccentricity":0.0001366,"inclination_deg":45.0051,"raan_deg":84.813,"arg_perigee_deg":322.2048,"mean_anomaly_deg":37.8705,"bstar":0.00029138,"rev_number":44691,"period_min":100.06341185181,"perigee_km":760.53984225551,"apogee_km":762.49039521435,"semimajor_km":7139.6521187349,"source":"CELESTRAK","updated_at":"2026-05-25T13:38:22.863565Z"}}}